Location: Misciano
(43.5000°N, 11.9500°E)
Time: 08:37:22
(UTC+00:00)

ATLAS 3B R/B - Pass Details

Date: 13 August 2020
Orbit: 1016 x 1179 km, 63.8° (Epoch: 17 September)

Event Time Altitude Azimuth Distance (km) Brightness Sun altitude
Exits shadow 22:01:48 22° 243° (WSW) 2,056 4.1 -29.7°
Maximum altitude 22:06:00 54° 312° (NW) 1,219 3.2 -30.0°
Drops below altitude 10° 22:12:31 10° 30° (NNE) 2,838 5.4 -30.4°
Sets 22:15:15 0° 35° (NE) 3,810 6.1 -30.5°
